NOAA 16 DEB, 41655

Orbit data source: Space-Track

NOAA 16 DEB, 41655 is space debris in SSO originally from a launch on Thu, 21 Sep 2000 UTC launched from the Air Force Western Test Range (AFWTR). Debris objects in space refer to the collection of defunct objects orbiting the Earth. Examples of debris include non-operational satellites, rocket bodies, and fragments generated from explosions, collisions, or faulty payload assembly.

Loading next visibility...
Identifier
41655, 2000-055NU
Orbit
SSO
Country
Flag of USUS
Related business
Manufacturer
Unknown
Mission
Spacecraft
Bus & Motor
Unknown
Mass
Unknown
Launch date (UTC)
2000-09-21 (25 years ago)
Launch vehicle
Unknown
Launch site
Air Force Western Test Range (AFWTR)
Object type
Payload
Rocket body
Debris
Shape & HBR
Unknown shape, 0.1 m
Radar Cross Section
Small (<0.1 m²)

Expand to show TLE details & history
Last TLE update: 3 days ago

TLE from 3 days ago
0 NOAA 16 DEB
1 41655U 00055NU  25290.07495883  .00010169  00000-0  35752-2 0  9994
2 41655  98.7227  26.2450 0019212 137.0283 223.2406 14.34986323492441
Epoch: 2025-10-17T01:47Z
TLE epoch observation values (Epoch: 2025-10-17T01:47:56.442Z)
Latitude
-0.00008°
Longitude
-26.5657°
Altitude
788.072 km
Speed
7.454 km/s
True Right ascension
01h 44m 58s
True Declination
0° 00' 00"
Sunlit
Object was in full shadow at epoch
Visualization orbit readout
Latitude
Unknown
Longitude
Unknown
Altitude
Unknown
Speed
Unknown
Apparent Right ascension
Unknown
Apparent Declination
Unknown
Sunlit
N/A
Visualization observer readout
Local Sidereal Time
10:54:33
Azimuth
Unknown
Elevation
Unknown
Doppler factor
Unknown
Orbital elements
Apogee altitude
785.988 km
Perigee altitude
758.514 km
Semi-major axis
7,150.388 km
Eccentricity
0.00192
Inclination
98.7227°
RAAN
26.245°
Arg. of periapsis
137.0283°
True anomaly
223.09004°
Mean anomaly
223.2406°
Eccentric anomaly
223.1653°
Mean motion
3.58962 °/min
Orbital period
100.29 mins
BSTAR
0.0035752
Loading maneuver chart data...
Computing Atmospheric mass density...

Documentation

Showing up to 5 results
|